Location: Colle Santa Colomba
(42.0333°N, 12.5667°E)
Time: 22:05:12
(UTC+00:00)

SWARM A - Pass Details

Date: 25 October 2021
Orbit: 424 x 429 km, 87.4° (Epoch: 05 December)

Event Time Altitude Azimuth Distance (km) Brightness Sun altitude
Rises 17:40:32 0° 182° (S) 2,386 8.0 -16.9°
Reaches altitude 10° 17:42:33 10° 183° (S) 1,525 7.0 -17.2°
Maximum altitude 17:45:51 81° 270° (W) 442 4.2 -17.9°
Drops below altitude 10° 17:49:11 10° 359° (N) 1,541 7.0 -18.5°
Sets 17:51:14 0° 1° (N) 2,414 8.0 -18.9°
